www.pogodaiklimat.ru

Погода и климат >> Архив погоды >> Багамские Острова >> Nassau


АРХИВ ПОГОДЫ в Nassau

Время (UTC), дата Ветер
(напр.,м/с)
 
Видим.   Явления Облачность Т
(С)
Тd
(С)
f
(%)
Тe
(С)
Тes
(С)
Комфортность P
(гПа)
Po
(гПа)
Тmin
(С)
Tmax
(С)
R
(мм)
R24
(мм)
S
(см)
21 10.07 СВ 4 15 км 6/6 450 м
[Cb cap Ac trans Ci ing]
+31.7 +24.2 65 +44 +46 опасность
перегрева
1015.9 1016.0
00 11.07 В 3 15 км 8/4 450 м
[Cb cap Ac As Ci ing]
+29.7 +22.6 66 +39 +39 очень
душно
1016.5 1017.0 +25.8 +32.9
03 11.07 нст 1 15 км 5/5 540 м
[Cb cap]
+28.8 +24.0 75 +40 +40 очень
душно
1017.6 1018.0
06 11.07 нст 1 15 км 5/1 600 м
[Cu hum As trans]
+28.0 +25.4 86 +41 +41 опасность
перегрева
1015.6 1016.0
09 11.07 В 2 15 км зарница 5/5 540 м
[Cb cap]
+28.6 +26.0 86 +43 +43 опасность
перегрева
1015.5 1016.0
12 11.07 СВ 3 15 км гроза без осадков 8/6 600 м
[Cb cap Ac As Ci ing]
+29.1 +25.7 82 +43 +44 опасность
перегрева
1016.5 1017.0 +26.8 +32.9
18 11.07 Ю 6 2800 м гроза, ливневой дождь 10/10 270 м
[Cb cap]
+28.3 +24.5 80 +40 +40 очень
душно
1019.2 1019.0 23
21 11.07 З 2 11 км гроза, ливневой дождь 10/6 360 м
[Cb cap Ac As]
+24.0 +22.5 91 +31 +32 очень
душно
1016.9 1017.0
00 12.07 Ю 2 13 км {гроза, ливн. осадки} 10/4 450 м
[Cb calv Ac As]
+25.6 +23.8 90 +35 +35 очень
душно
1018.2 1018.0 +21.6 +29.2 56
03 12.07 штиль 0 13 км 9/3 540 м
[Cu med, cong Ac trans Ci sp]
+25.9 +24.3 91 +36 +36 очень
душно
1017.4 1017.0
06 12.07 нст 1 13 км 8/4 600 м
[Cu med, cong Ac trans Ci sp]
+25.0 +23.9 94 +34 +34 очень
душно
1017.9 1018.0
09 12.07 штиль 0 13 км 6/5 600 м
[Cu Sc Ac trans Ci fib]
+24.6 +23.7 95 +33 +33 очень
душно
1017.5 1018.0
15 12.07 Ю 4 13 км 8/6 600 м
[Cu Sc Ac trans Ci sp]
+31.0 +24.8 70 +44 +48 опасность
перегрева
1020.7 1021.0
18 12.07 Ю 4 13 км 9/6 600 м
[Cu Sc Ac trans Ci fib]
+32.2 +25.5 68 +47 +50 опасность
перегрева
1020.5 1021.0
21 12.07 Ю 4 13 км 9/6 600 м
[Cu Sc Ac trans Ci fib]
+32.4 +24.4 63 +45 +47 опасность
перегрева
1019.3 1019.0
00 13.07 Ю 3 13 км 6/4 600 м
[Cu Sc Ci fib]
+31.0 +25.3 72 +45 +45 опасность
перегрева
1019.5 1020.0 +23.4 +33.6
03 13.07 З 2 15 км 1/1 540 м
[Cu hum]
+29.0 +25.3 80 +42 +42 опасность
перегрева
1021.2 1021.0
06 13.07 нст 1 15 км 1/1 540 м
[Cu hum]
+27.6 +25.4 88 +40 +40 очень
душно
1019.9 1020.0
09 13.07 штиль 0 15 км 1/1 480 м
[Cb cap]
+27.0 +25.5 92 +40 +40 очень
душно
1019.3 1019.0
12 13.07 Ю 2 15 км 4/3 600 м
[Cu hum Ci fib]
+28.6 +25.7 84 +42 +44 опасность
перегрева
1019.2 1019.0 +25.6 +33.6
15 13.07 С 3 15 км осадки на расстоянии 5/4 450 м
[Cb cap Ci ing]
+32.2 +25.5 68 +47 +55 опасность
перегрева
1020.6 1021.0
18 13.07 В 3 13 км осадки на расстоянии {гроза} 8/4 450 м
[Cb cap Ci ing]
+32.4 +23.8 61 +44 +53 опасность
перегрева
1020.5 1021.0
21 13.07 СВ 3 13 км 8/5 480 м
[Cu Sc Ci ing]
+33.0 +25.1 63 +47 +50 опасность
перегрева
1019.3 1019.0
00 14.07 Ю 2 15 км 6/3 600 м
[Cu Sc Ci sp]
+30.8 +24.9 71 +44 +44 опасность
перегрева
1019.2 1019.0 +25.6 +33.0
03 14.07 Ю 2 13 км {ливн. осадки} 6/3 600 м
[Cu Sc Ci sp]
+27.8 +24.9 84 +40 +40 очень
душно
1020.1 1020.0
06 14.07 нст 1 13 км {ливн. осадки} 6/3 600 м
[Cu Sc Ci sp]
+27.2 +25.7 92 +40 +40 очень
душно
1018.5 1019.0 1
09 14.07 штиль 0 13 км 6/3 600 м
[Cu Sc Ci sp]
+26.9 +24.6 87 +38 +38 очень
душно
1017.5 1018.0
12 14.07 нст 1 13 км осадки на расстоянии 6/5 450 м
[Cb cap Ac trans Ci ing]
+28.3 +25.7 86 +42 +43 опасность
перегрева
1018.3 1018.0 +25.5 +33.0
15 14.07 ЮЗ 3 13 км 9/4 450 м
[Cb cap Ac As Ci ing]
+30.2 +24.8 73 +43 +48 опасность
перегрева
1019.8 1020.0
18 14.07 ЮЗ 2 13 км 9/3 450 м
[Cb cap Ac As Ci ing]
+32.0 +24.8 66 +45 +54 опасность
перегрева
1019.0 1019.0
21 14.07 СВ 3 15 км 5/3 600 м
[Cb cap Ci sp]
+31.5 +24.3 66 +44 +49 опасность
перегрева
1018.4 1018.0
03 15.07 Ю 2 15 км зарница 3/3 540 м
[Cb cap]
+28.6 +24.8 80 +41 +41 опасность
перегрева
1019.3 1019.0
06 15.07 В 2 15 км {ливн. осадки} 3/3 600 м
[Cu hum]
+27.0 +24.0 84 +37 +37 очень
душно
1018.4 1018.0 1
12 15.07 Ю 2 15 км 4/3 540 м
[Cu med, cong Ci sp]
+27.5 +24.1 82 +38 +40 очень
душно
1018.1 1018.0 +25.0 +32.2
15 15.07 Ю 3 15 км 5/4 540 м
[Cb cap Ci ing]
+32.4 +24.8 64 +45 +53 опасность
перегрева
1018.8 1019.0
18 15.07 ЮВ 4 15 км осадки на расстоянии 5/4 540 м
[Cb cap Ci ing]
+33.2 +24.4 60 +46 +55 опасность
перегрева
1018.7 1019.0
21 15.07 Ю 3 15 км 5/4 450 м
[Cb cap Ac trans Ci ing]
+32.9 +24.7 62 +46 +50 опасность
перегрева
1017.7 1018.0
00 16.07 Ю 3 15 км 5/5 540 м
[Cu Sc Ci sp]
+30.8 +23.1 64 +41 +41 опасность
перегрева
1017.8 1018.0 +25.0 +33.5
03 16.07 СЗ 3 11 км слабый ливневой дождь, в посл. час гроза 8/8 450 м
[Cb cap]
+25.6 +24.4 93 +36 +36 очень
душно
1019.5 1020.0
06 16.07 штиль 0 15 км {гроза, дождь} 5/3 750 м
[Cu Sc Ac trans]
+26.5 +25.2 93 +38 +38 очень
душно
1018.9 1019.0 31
12 16.07 ЮВ 2 15 км 4/3 600 м
[Cb cap Ci fib]
+29.7 +24.8 75 +42 +44 опасность
перегрева
1019.5 1020.0 +23.9 +33.5
18 16.07 Ю 5 15 км 6/3 450 м
[Cu Sc Ci fib]
+32.8 +22.9 56 +43 +51 опасность
перегрева
1019.6 1020.0
21 16.07 Ю 5 15 км 6/6 450 м
[Cb cap Ci sp]
+32.1 +24.6 65 +45 +47 опасность
перегрева
1018.9 1019.0
00 17.07 Ю 3 15 км 6/4 450 м
[Cb cap Ci ing]
+31.3 +25.0 69 +45 +45 опасность
перегрева
1019.0 1019.0 +23.9 +33.1
03 17.07 нст 1 13 км гроза, ливневой дождь 8/5 450 м
[Cb cap Ci ing]
+29.4 +24.0 73 +41 +41 опасность
перегрева
1020.2 1020.0
06 17.07 штиль 0 15 км {гроза, ливн. осадки} 8/5 540 м
[Cu med, cong Ac As Ci sp]
+27.2 +25.1 88 +39 +39 очень
душно
1019.8 1020.0 1
09 17.07 Ю 3 15 км 5/5 600 м
[Cu med, cong]
+29.2 +24.9 78 +42 +42 опасность
перегрева
1019.5 1020.0
12 17.07 ЮВ 4 15 км 5/4 600 м
[Cu med, cong Ci fib]
+29.8 +24.8 75 +43 +44 опасность
перегрева
1020.5 1021.0 +25.0 +33.1
15 17.07 ЮВ 7 15 км 6/5 540 м
[Cb cap Ci ing]
+32.4 +24.7 64 +45 +48 опасность
перегрева
1021.3 1021.0

 

Местоположение метеостанции Nassau (Багамские Острова): широта 25.05 долгота -77.46 высота над уровнем моря 7 м.

В архиве по умолчанию представлена погода в Nassau за последнюю неделю. Архивные данные за месяц целиком и за предыдущие месяцы, начиная с января 2011 года, Вы можете получить, выбрав интересующий диапазон дат из раскрывающегося списка и нажав кнопку "Ввод!".


*Определитесь, кто Вы:
робот инопланетянин человек

Внимание! Время в таблицах - всемирное. Для получения местного времени необходимо прибавить поправку, которая в Nassau равна -4 ч.

Смотрите также архив погоды в соседних городах и на ближайших метеорологических станциях:

Погода в Grand Bahama (Багамские Острова) (208 км)
Погода в Cayo Coco (Куба) (295 км)
Погода в Caibarien (Куба) (347 км)
Погода в El Yabu (Куба) (385 км)
Погода в Nuevitas (Куба) (392 км)
Погода в Sancti Spiritus (Куба) (402 км)
Погода в Camaguey airport (Куба) (406 км)
Погода в Jucaro (Куба) (407 км)
Погода в Camaguey (Куба) (408 км)
Погода в Puerto Padre (Куба) (437 км)

Пояснения к столбцам:

Ветер - указаны скорость ветра в м/с - средняя за 10 мин, порывы в срок и между сроками (в фигурных скобках) и направление, откуда дует ветер: С - северный, СВ - северо-восточный, В - восточный, ЮВ - юго-восточный, Ю - южный, ЮЗ - юго-западный, З - западный, СЗ - северо-западный.
Видимость - горизонтальная дальность видимости в метрах или километрах. При видимости от 1 до 10 км при отсутствии осадков обычно наблюдается дымка, при ухудшении видимости до 1 км и менее - туман. В сухую погоду видимость может ухудшаться дымом, пылью или мглою.
Явления - указаны атмосферные явления, наблюдавшиеся в срок или в последний час перед сроком; фигурными скобками обозначены явления, наблюдавшиеся между сроками (за 1-3 часа до срока); квадратными скобками обозначены град или гололедные отложения с указанием их диаметра в мм.
Облачность - указаны через наклонную черту общая и нижняя облачность в баллах и высота нижней границы облаков в метрах; квадратными скобками обозначены формы облаков: Ci - перистые, Cs - перисто-слоистые, Cc - перисто-кучевые, Ac - высококучевые, As - высокослоистые, Sc - слоисто-кучевые, Ns - слоисто-дождевые, Cu - кучевые, Cb - кучево-дождевые. Подробнее классификацию облаков см. в Атласе облаков (PDF).
T - Температура воздуха - температура, измеренная на высоте 2 м над землей.
Td - Температура точки росы - температура, при понижении до которой содержащийся в воздухе водяной пар достигнет насыщения.
f - Относительная влажность воздуха - влажноcть воздуха, измеренная на высоте 2 м над землей.
Te - Эффективная температура - температура, которую ощущает одетый по сезону человек в тени. Характеристика душности погоды. При расчете учитывается влияние влажности воздуха и скорости ветра на теплоощущения человека.
Tes - Эффективная температура на солнце - температура, которую ощущает человек, с поправкой на солнечный нагрев. Характеристика знойности погоды. Зависит от высоты солнца над горизонтом, облачности и скорости ветра. Ночью, в пасмурную погоду, а также при ветре 12 м/с и более поправка равна нулю.
P - Атмосферное давление - приведенное к уровню моря атмосферное давление.
Po - Атмосферное давление - измеренное на уровне метеостанции атмосферное давление.
Tmin - Минимальная температура - минимум температуры воздуха на высоте 2 м над землей.
Tmax - Максимальная температура - максимум температуры воздуха на высоте 2 м над землей.
R - Количество осадков - Количество выпавших осадков за период времени, мм. При наведении курсора мыши на число - период времени, за который выпало указанное количество осадков.
R24 - Количество осадков - Количество выпавших осадков за 24 часа, мм.
S - Снежный покров - Высота снежного покрова, см. При наведении курсора мыши на число - состояние снежного покрова и степень покрытия местности в баллах.